Regional Weather Roundup
Issued by NWS New Orleans/Baton Rouge, LA

Home | Current Version | Previous Version | Text Only | Print | Product List | Glossary On
Versions: 1 2 3 4 5 6 7 8 9 10 11 12 13 14 15 16 17 18 19 20 21 22 23 24 25 26 27 28 29 30 31 32 33 34 35 36 37 38 39 40 41 42 43 44 45 46 47 48 49 50
000
ASUS44 KLIX 200905
RWRLIX
NEW ORLEANS REGIONAL WEATHER ROUNDUP
NATIONAL WEATHER SERVICE NEW ORLEANS LA
400 AM CDT SAT SEP 20 2014

NOTE: "FAIR" INDICATES FEW OR NO CLOUDS BELOW 12,000 FEET WITH NO
      SIGNIFICANT WEATHER AND/OR OBSTRUCTIONS TO VISIBILITY.
      SKY/WX - SKY CONDITION AND SIGNIFICANT WEATHER.
      TMP - AIR TEMPERATURE.     DP    - DEWPOINT TEMPERATURE.
      RH  - RELATIVE HUMIDITY.   PRES  - PRESSURE.
      HI  - HEAT INDEX.          WCI   - WIND CHILL INDEX.

*  THESE STATIONS ARE NOT NWS OR FAA STATIONS AND ARE NOT UNDER
   NWS QUALITY CONTROL.

LAZ038-040-048-061>063-065>067-069-201000-
SOUTHEAST LOUISIANA

CITY           SKY/WX    TMP DP  RH WIND       PRES   REMARKS
N.O. AUDUBON     N/A     79  71  76 MISG        N/A
N.O. INTL ARPT PTCLDY    78  69  73 E6        29.92S
N.O. LAKEFRONT PTCLDY    79  73  82 NE16      29.93R
N.O. DOWNTOWN*   N/A     81  66  61 E5        29.92S
SLIDELL        CLEAR     71  68  90 NE5       29.93S
BATON ROUGE    CLEAR     70  67  90 NE6       29.94S
BOOTHVILLE     CLEAR     80  72  76 E10       29.90S
BELLE CHASSE   CLEAR     77  69  76 NE9       29.91S
BOGALUSA*        N/A     69  65  90 CALM      29.97S
GALLIANO*      NOT AVBL
NEW ROADS*       N/A     69  68  97 CALM      29.95R
GONZALES*        N/A     71  71 100 CALM      29.92S
HAMMOND*       CLEAR     72  66  83 NE3       29.96S
HOUMA*         CLEAR     72  66  81 N3        29.91S
PORT FOURCHON* PTSUNNY   81  72  74 E14G20    29.92S

$$

MSZ070-080>082-201000-
SOUTHERN MISSISSIPPI

CITY           SKY/WX    TMP DP  RH WIND       PRES   REMARKS
MCCOMB         CLEAR     72  68  87 CALM      29.97S
GULFPORT       CLEAR     74  69  85 NE6       29.93S
BILOXI         CLEAR     73  69  86 NE9       29.94S
PASCAGOULA     CLEAR     71  68  90 NE6       29.94F

$$

COASTAL OBSERVATIONS
LAKE AND NEARSHORE STATIONS

STATION/POSITION TIME  TEMP    WIND        PRES    WAVE
                       AIR SEA DIR/SP/G            HT/PER
                 (UTC) (F)     (DEG/KT/KT) (MB)    (FT/S)
PASCAGOULA       0900   74      50/ 10/ 12 1013.1
WAVELAND YACHT   0900   76      60/ 11/ 12 1012.9
GRAND ISLE       0900   81 82   90/ 12/ 18 1012.7
SOUTHWEST PASS   0900   82 89   90/ 23/ 26 1012.2
NEW CANAL        0900   80 81   70/ 14/ 16 1013.4
SHELL BEACH      0900   80 78   80/ 16/ 18 1012.6

OFFSHORE STATIONS

STATION/POSITION TIME  TEMP    WIND        PRES    WAVE
                       AIR SEA DIR/SP/G            HT/PER
                 (UTC) (F)     (DEG/KT/KT) (MB)    (FT/S)
64 S DAUPHIN ISL 0808   82 84   90/ 21/ 23 1012.4    6/ 7

$$




USA.gov is the U.S. government's official web portal to all federal, state and local government web resources and services.